Tracking 19242 objects as of 19-Sep-2018
HD Live streaming from Space Station
objects crossing your sky now

HELLAS-SAT 2

Track HELLAS-SAT 2 now!
HELLAS-SAT 2 is classified as:


NORAD ID: 27811
Int'l Code: 2003-020A
Perigee: 35,763.8 km
Apogee: 35,822.0 km
Inclination: 0.4 °
Period: 1,436.1 minutes
Semi major axis: 42163 km
RCS: 15.8489 m2 (large)
Launch date: May 13, 2003
Source: Greece (GREC)
Launch site: AIR FORCE EASTERN TEST RANGE (AFETR)

30 Ku-band; television broadcasting services for the 2004 Summer Olympic Games in Athens.
aabbcc
Your satellite tracking list
Your tracking list is empty




NASA's NSSDC Master Catalog

Two Line Element Set (TLE):
1 27811U 03020A   18261.16432851  .00000133  00000-0  00000+0 0  9998
2 27811   0.4459 102.4658 0006910 100.1597 252.5664  1.00274800 55976
Source of the keplerian elements: AFSPC